AMOS-3 (32794 NORAD) Tracking and Keplerian Element Data

This shows tracking and keplerian element data for the satellite.

Feedback or suggestion? Click here.




ElementValue
Catalog32794
NameAMOS-3
Epoch Orbit8054
Epoch Day354.15878257
Epoch Year2025
RAAN83.9872
Inclination0.0301
Eccentricity0.00034
Argument of Perigee154.0503
Mean Anonmoly263.9978
Mean Motion1.00271422
Decay Rate-1.1E-07
L11 32794U 08022A 25354.15878257 -.00000011 00000+0 00000+0 0 9990
L22 32794 0.0301 83.9872 0003400 154.0503 263.9978 1.00271422 80543



Live tracking and technical data element details for AMOS-3 (NORAD 32794). AMOS-3 can be tracked NOW for your location showing map with azimuth and elevation plus other details from your city location.







IsCatalogInMostPopularTable: catalog: 32794, numindb: 347
Update: records affected: 1



GetName: 32794 AMOS-3

Hit Count: updated at: Sat, 07 Mar 2026 06:59:08 GMT